Location: Peyton Hall Observatory
(40.3466°N, 74.6516°W)
Time: 14:50:29
(UTC-04:00)

ISS - All Passes

Search period start: 29 July 2014 00:00
Search period end: 08 August 2014 00:00
Orbit: 411 x 420 km, 51.6° (Epoch: 29 July)

Date Brightness Start Highest point End Pass type
(mag) Time Alt. Az. Time Alt. Az. Time Alt. Az.
29 Jul - 00:30:37 10° WSW 00:33:52 49° NNW 00:37:08 10° NE visible
29 Jul - 02:09:10 10° NW 02:11:12 15° NNW 02:13:14 10° NNE visible
29 Jul - 03:47:23 10° NNW 03:49:01 13° N 03:50:40 10° NE visible
29 Jul - 05:23:32 10° NW 05:26:34 30° NNE 05:29:35 10° E visible
29 Jul - 07:00:12 10° WNW 07:03:18 35° SW 07:06:23 10° SSE daylight
29 Jul - 22:08:19 10° SE 22:08:48 10° SE 22:09:17 10° ESE night (unlit)
29 Jul - 23:41:41 10° SW 23:45:01 84° NW 23:48:23 10° NE night (unlit)
30 Jul - 01:19:43 10° WNW 01:22:09 18° NNW 01:24:35 10° NNE visible
30 Jul - 02:58:28 10° NNW 02:59:54 12° N 03:01:20 10° NNE visible
30 Jul - 04:34:53 10° NNW 04:37:35 22° NNE 04:40:17 10° ENE visible
30 Jul - 06:11:13 10° WNW 06:14:34 65° SW 06:17:53 10° SE daylight
30 Jul - 22:52:59 10° SW 22:56:14 53° SE 22:59:30 10° ENE night (unlit)
31 Jul - 00:30:20 10° W 00:33:08 24° NNW 00:35:56 10° NNE visible
31 Jul - 02:09:19 10° NNW 02:10:46 12° N 02:12:14 10° NNE visible
31 Jul - 03:46:14 10° NNW 03:48:33 17° NNE 03:50:52 10° ENE visible
31 Jul - 05:22:23 10° NW 05:25:45 71° NE 05:29:06 10° ESE visible
31 Jul - 07:00:31 10° WSW 07:02:03 13° SW 07:03:35 10° SSW daylight
31 Jul - 22:04:35 10° SSW 22:07:30 29° SE 22:10:27 10° ENE night (unlit)
31 Jul - 23:41:05 10° W 23:44:09 34° NNW 23:47:16 10° NE night (unlit)
01 Aug - 01:19:55 10° NW 01:21:39 13° N 01:23:23 10° NNE visible
01 Aug - 02:57:33 10° NNW 02:59:28 14° NNE 03:01:23 10° NE visible
01 Aug - 04:33:38 10° NW 04:36:52 42° NNE 04:40:05 10° ESE visible
01 Aug - 06:10:44 10° W 06:13:25 22° SW 06:16:05 10° S daylight
01 Aug - 21:16:39 10° S 21:18:50 16° SE 21:21:01 10° E visible
01 Aug - 22:51:58 10° WSW 22:55:15 54° NNW 22:58:32 10° NE visible
02 Aug - 00:30:26 10° NW 00:32:32 15° NNW 00:34:39 10° NNE visible
02 Aug - 02:08:46 10° NNW 02:10:21 13° N 02:11:55 10° NE visible
02 Aug - 03:44:57 10° NW 03:47:55 28° NNE 03:50:53 10° E visible
02 Aug - 05:21:32 10° WNW 05:24:42 39° SW 05:27:51 10° SSE visible
02 Aug - 22:03:04 10° SW 22:06:23 86° SE 22:09:44 10° NE visible
02 Aug - 23:40:58 10° WNW 23:43:28 19° NNW 23:45:58 10° NNE visible
03 Aug - 01:19:48 10° NNW 01:21:12 12° N 01:22:36 10° NNE visible
03 Aug - 02:56:17 10° NNW 02:58:54 21° NNE 03:01:32 10° ENE visible
03 Aug - 04:32:34 10° WNW 04:35:55 73° SW 04:39:16 10° SE visible
03 Aug - 21:14:23 10° SSW 21:17:35 46° SE 21:20:48 10° ENE visible
03 Aug - 22:51:35 10° W 22:54:26 25° NNW 22:57:18 10° NE visible
04 Aug - 00:30:33 10° NNW 00:32:03 12° N 00:33:32 10° NNE visible
04 Aug - 02:07:36 10° NNW 02:09:50 16° NNE 02:12:04 10° ENE visible
04 Aug - 03:43:44 10° NW 03:47:04 63° NE 03:50:24 10° ESE visible
04 Aug - 05:21:33 10° W 05:23:25 14° SW 05:25:17 10° SSW visible
04 Aug - 20:26:02 10° SSW 20:28:50 26° SE 20:31:40 10° ENE daylight
04 Aug - 22:02:19 10° W 22:05:27 37° NNW 22:08:35 10° NE visible
04 Aug - 23:41:07 10° NW 23:42:54 14° N 23:44:41 10° NNE visible
05 Aug - 01:18:53 10° NNW 01:20:43 14° N 01:22:33 10° NE visible
05 Aug - 02:54:58 10° NW 02:58:09 38° NNE 03:01:19 10° E night (unlit)
05 Aug - 04:31:56 10° WNW 04:34:44 25° SW 04:37:32 10° S visible
05 Aug - 19:38:14 10° SSE 19:40:09 15° SE 19:42:05 10° E daylight
05 Aug - 21:13:14 10° WSW 21:16:31 60° NW 21:19:50 10° NE visible
05 Aug - 22:51:36 10° NW 22:53:46 16° NNW 22:55:57 10° NNE visible
06 Aug - 00:30:03 10° NNW 00:31:34 12° N 00:33:04 10° NNE visible
06 Aug - 02:06:15 10° NW 02:09:09 26° NNE 02:12:03 10° E night (unlit)
06 Aug - 03:42:46 10° WNW 03:45:59 44° SW 03:49:12 10° SSE night (unlit)
06 Aug - 20:24:20 10° SW 20:27:38 77° SE 20:30:59 10° NE daylight
06 Aug - 22:02:07 10° WNW 22:04:40 20° NNW 22:07:15 10° NNE visible
06 Aug - 23:41:00 10° NNW 23:42:23 12° N 23:43:46 10° NNE visible
07 Aug - 01:17:34 10° NNW 01:20:06 20° NNE 01:22:39 10° ENE visible
07 Aug - 02:53:48 10° NW 02:57:10 82° SW 03:00:31 10° SE night (unlit)
07 Aug - 19:35:41 10° SSW 19:38:49 41° SE 19:41:59 10° ENE daylight
07 Aug - 21:12:43 10° W 21:15:37 27° NNW 21:18:32 10° NE visible
07 Aug - 22:51:41 10° NNW 22:53:12 13° N 22:54:43 10° NNE visible
